Time,TemperatureF,DewpointF,PressureIn,WindDirection,WindDirectionDegrees,WindSpeedMPH,WindSpeedGustMPH,Humidity,HourlyPrecipIn,Conditions,Clouds,dailyrainin,SoftwareType,DateUTC
2013-02-06 00:01:00,33.0,30.0,-100.00,North,355,0.0,2.0,88,-99.99,,,-99.99,,2013-02-06 08:01:00,
2013-02-06 00:10:00,33.0,31.0,-100.00,NNE,15,2.0,3.0,92,-99.99,,,-99.99,,2013-02-06 08:10:00,
2013-02-06 01:01:00,33.0,31.0,-100.00,NNE,15,2.0,3.0,92,-99.99,,,-99.99,,2013-02-06 09:01:00,
2013-02-06 02:01:00,33.0,31.0,-100.00,SSW,205,1.0,1.0,92,-99.99,,,-99.99,,2013-02-06 10:01:00,
2013-02-06 02:10:00,34.0,31.0,-100.00,NNW,340,1.0,2.0,88,-99.99,,,-99.99,,2013-02-06 10:10:00,
2013-02-06 02:11:00,33.0,31.0,-100.00,SSW,205,1.0,1.0,92,-99.99,,,-99.99,,2013-02-06 10:11:00,
2013-02-06 03:01:00,34.0,31.0,-100.00,NNW,340,1.0,2.0,88,-99.99,,,-99.99,,2013-02-06 11:01:00,
2013-02-06 04:01:00,36.0,33.0,-100.00,WNW,295,5.0,7.0,88,-99.99,,,-99.99,,2013-02-06 12:01:00,
2013-02-06 04:12:00,36.0,33.0,-100.00,WNW,295,5.0,7.0,88,-99.99,,,-99.99,,2013-02-06 12:12:00,
2013-02-06 05:01:00,35.0,33.0,-100.00,North,350,2.0,5.0,92,-99.99,,,-99.99,,2013-02-06 13:01:00,
2013-02-06 05:10:00,35.0,33.0,-100.00,NNW,340,2.0,8.0,92,-99.99,,,-99.99,,2013-02-06 13:10:00,
2013-02-06 06:01:00,35.0,33.0,-100.00,NNW,340,2.0,8.0,92,-99.99,,,-99.99,,2013-02-06 14:01:00,
2013-02-06 07:01:00,34.0,32.0,-100.00,NNE,15,2.0,5.0,92,-99.99,,,-99.99,,2013-02-06 15:01:00,
2013-02-06 07:10:00,34.0,32.0,-100.00,West,280,5.0,7.0,92,-99.99,,,-99.99,,2013-02-06 15:10:00,
2013-02-06 07:11:00,34.0,32.0,-100.00,NNE,15,2.0,5.0,92,-99.99,,,-99.99,,2013-02-06 15:11:00,
2013-02-06 08:01:00,34.0,32.0,-100.00,West,280,5.0,7.0,92,-99.99,,,-99.99,,2013-02-06 16:01:00,
2013-02-06 09:01:00,35.0,33.0,-100.00,North,350,1.0,7.0,92,-99.99,,,-99.99,,2013-02-06 17:01:00,
2013-02-06 09:11:00,35.0,33.0,-100.00,North,350,1.0,7.0,92,-99.99,,,-99.99,,2013-02-06 17:11:00,
2013-02-06 09:20:00,36.0,33.0,-100.00,SE,145,3.0,5.0,88,-99.99,,,-99.99,,2013-02-06 17:20:00,
2013-02-06 10:01:00,36.0,33.0,-100.00,SE,145,3.0,5.0,88,-99.99,,,-99.99,,2013-02-06 18:01:00,
2013-02-06 10:10:00,39.0,34.0,-100.00,SE,135,1.0,5.0,82,-99.99,,,-99.99,,2013-02-06 18:10:00,
2013-02-06 10:11:00,36.0,33.0,-100.00,SE,145,3.0,5.0,88,-99.99,,,-99.99,,2013-02-06 18:11:00,
2013-02-06 11:01:00,39.0,34.0,-100.00,SE,135,1.0,5.0,82,-99.99,,,-99.99,,2013-02-06 19:01:00,
2013-02-06 12:01:00,45.0,32.0,-100.00,East,100,1.0,2.0,60,-99.99,,,-99.99,,2013-02-06 20:01:00,
2013-02-06 12:11:00,45.0,32.0,-100.00,East,100,1.0,2.0,60,-99.99,,,-99.99,,2013-02-06 20:11:00,
2013-02-06 13:01:00,44.0,31.0,-100.00,SSW,195,0.0,1.0,59,-99.99,,,-99.99,,2013-02-06 21:01:00,
2013-02-06 13:10:00,44.0,31.0,-100.00,SE,145,2.0,3.0,59,-99.99,,,-99.99,,2013-02-06 21:10:00,
2013-02-06 14:01:00,44.0,31.0,-100.00,SE,145,2.0,3.0,59,-99.99,,,-99.99,,2013-02-06 22:01:00,
2013-02-06 15:01:00,44.0,31.0,-100.00,SE,140,1.0,3.0,59,-99.99,,,-99.99,,2013-02-06 23:01:00,
2013-02-06 15:10:00,45.0,31.0,-100.00,SW,230,1.0,3.0,57,-99.99,,,-99.99,,2013-02-06 23:10:00,
2013-02-06 15:11:00,44.0,31.0,-100.00,SE,140,1.0,3.0,59,-99.99,,,-99.99,,2013-02-06 23:11:00,
2013-02-06 16:01:00,45.0,31.0,-100.00,SW,230,1.0,3.0,57,-99.99,,,-99.99,,2013-02-07 00:01:00,
2013-02-06 17:01:00,42.0,30.0,-100.00,SW,225,3.0,3.0,62,-99.99,,,-99.99,,2013-02-07 01:01:00,
2013-02-06 17:11:00,42.0,30.0,-100.00,SW,225,3.0,3.0,62,-99.99,,,-99.99,,2013-02-07 01:11:00,
2013-02-06 18:01:00,40.0,29.0,-100.00,NW,305,1.0,1.0,64,-99.99,,,-99.99,,2013-02-07 02:01:00,
2013-02-06 18:10:00,38.0,30.0,-100.00,East,90,0.0,1.0,72,-99.99,,,-99.99,,2013-02-07 02:10:00,
2013-02-06 19:02:00,38.0,30.0,-100.00,East,90,0.0,1.0,72,-99.99,,,-99.99,,2013-02-07 03:02:00,
2013-02-06 20:01:00,37.0,32.0,-100.00,NNW,345,2.0,6.0,81,-99.99,,,-99.99,,2013-02-07 04:01:00,
2013-02-06 20:10:00,38.0,34.0,-100.00,NNW,335,3.0,7.0,85,-99.99,,,-99.99,,2013-02-07 04:10:00,
2013-02-06 20:11:00,37.0,32.0,-100.00,NNW,345,2.0,6.0,81,-99.99,,,-99.99,,2013-02-07 04:11:00,
2013-02-06 21:01:00,38.0,34.0,-100.00,NNW,335,3.0,7.0,85,-99.99,,,-99.99,,2013-02-07 05:01:00,
2013-02-06 22:02:00,37.0,33.0,-100.00,NW,325,2.0,3.0,85,-99.99,,,-99.99,,2013-02-07 06:02:00,
2013-02-06 22:11:00,37.0,33.0,-100.00,NW,325,2.0,3.0,85,-99.99,,,-99.99,,2013-02-07 06:11:00,
2013-02-06 22:20:00,36.0,33.0,-100.00,NE,55,0.0,1.0,88,-99.99,,,-99.99,,2013-02-07 06:20:00,
2013-02-06 23:01:00,36.0,33.0,-100.00,NE,55,0.0,1.0,88,-99.99,,,-99.99,,2013-02-07 07:01:00,
2013-02-06 23:10:00,36.0,33.0,-100.00,NW,320,1.0,1.0,88,-99.99,,,-99.99,,2013-02-07 07:10:00,
2013-02-06 23:11:00,36.0,33.0,-100.00,NE,55,0.0,1.0,88,-99.99,,,-99.99,,2013-02-07 07:11:00,